Track STARLINK-1818 now! 10-day predictions STARLINK-1818 is classified as:
1 46716U 20073AY 22183.49763697 -.00001412 00000-0 -75920-4 0 9990 2 46716 53.0524 179.9063 0001639 60.1970 299.9181 15.06389844 94013